TimeEST,TemperatureF,Dew PointF,Humidity,Sea Level PressureIn,VisibilityMPH,Wind Direction,Wind SpeedMPH,Gust SpeedMPH,PrecipitationIn,Events,Conditions,WindDirDegrees,DateUTC
12:53 AM,72.0,68.0,87,30.11,10.0,NE,8.1,-,N/A,,Clear,50,2013-12-20 05:53:00
1:53 AM,72.0,69.1,91,30.09,10.0,NE,6.9,-,N/A,,Scattered Clouds,50,2013-12-20 06:53:00
2:53 AM,72.0,70.0,93,30.08,10.0,NE,5.8,-,N/A,,Scattered Clouds,50,2013-12-20 07:53:00
3:53 AM,75.0,71.1,87,30.08,10.0,East,12.7,-,N/A,,Clear,80,2013-12-20 08:53:00
4:53 AM,75.0,71.1,87,30.09,10.0,East,11.5,-,N/A,,Partly Cloudy,90,2013-12-20 09:53:00
5:53 AM,75.0,71.1,87,30.09,10.0,East,10.4,18.4,N/A,,Overcast,90,2013-12-20 10:53:00
6:53 AM,75.9,71.1,85,30.10,10.0,East,13.8,-,N/A,,Overcast,90,2013-12-20 11:53:00
7:53 AM,75.9,71.1,85,30.12,10.0,East,15.0,-,N/A,,Mostly Cloudy,100,2013-12-20 12:53:00
8:53 AM,77.0,71.1,82,30.13,10.0,ESE,17.3,-,N/A,,Mostly Cloudy,110,2013-12-20 13:53:00
9:53 AM,77.0,72.0,84,30.14,10.0,East,16.1,-,N/A,,Scattered Clouds,100,2013-12-20 14:53:00
10:53 AM,79.0,72.0,79,30.14,10.0,ESE,16.1,-,N/A,,Clear,110,2013-12-20 15:53:00
11:53 AM,80.1,72.0,76,30.12,10.0,ESE,18.4,-,N/A,,Partly Cloudy,110,2013-12-20 16:53:00
12:53 PM,79.0,72.0,79,30.10,10.0,ESE,16.1,-,N/A,,Clear,110,2013-12-20 17:53:00
1:53 PM,80.1,72.0,76,30.08,10.0,ESE,17.3,-,N/A,,Clear,110,2013-12-20 18:53:00
2:53 PM,80.1,72.0,76,30.06,10.0,ESE,18.4,-,N/A,,Partly Cloudy,110,2013-12-20 19:53:00
3:53 PM,79.0,72.0,79,30.06,10.0,ESE,16.1,-,N/A,,Partly Cloudy,110,2013-12-20 20:53:00
4:53 PM,78.1,71.1,79,30.07,10.0,East,13.8,-,N/A,,Clear,100,2013-12-20 21:53:00
5:53 PM,77.0,72.0,84,30.08,10.0,East,12.7,-,N/A,,Scattered Clouds,100,2013-12-20 22:53:00
6:53 PM,77.0,71.1,82,30.09,10.0,ESE,15.0,-,N/A,,Clear,110,2013-12-20 23:53:00
7:53 PM,77.0,71.1,82,30.10,10.0,ESE,12.7,-,N/A,,Clear,110,2013-12-21 00:53:00
8:53 PM,77.0,71.1,82,30.12,10.0,ESE,16.1,-,N/A,,Partly Cloudy,110,2013-12-21 01:53:00
9:53 PM,77.0,72.0,84,30.12,10.0,ESE,11.5,-,N/A,,Clear,110,2013-12-21 02:53:00
10:53 PM,77.0,71.1,82,30.13,10.0,East,13.8,-,N/A,,Clear,100,2013-12-21 03:53:00
11:53 PM,77.0,71.1,82,30.12,10.0,East,12.7,-,N/A,,Overcast,100,2013-12-21 04:53:00